Time,TemperatureF,DewpointF,PressureIn,WindDirection,WindDirectionDegrees,WindSpeedMPH,WindSpeedGustMPH,Humidity,HourlyPrecipIn,Conditions,Clouds,dailyrainin,SoftwareType,DateUTC
2013-02-05 00:00:00,27.8,12.0,29.94,NW,308,14.0,21.0,51,0.00,,SKC,0.00,VWS V13.01,2013-02-05 05:00:00,
2013-02-05 00:04:00,27.8,12.0,29.94,WNW,288,11.0,19.0,51,0.00,,SKC,0.00,VWS V13.01,2013-02-05 05:04:00,
2013-02-05 00:09:00,27.8,12.5,29.94,West,277,14.0,19.0,52,0.00,,SKC,0.00,VWS V13.01,2013-02-05 05:09:00,
2013-02-05 00:10:00,27.8,12.5,29.94,WNW,287,15.0,19.0,52,0.00,,SKC,0.00,VWS V13.01,2013-02-05 05:10:00,
2013-02-05 00:14:00,27.8,12.9,29.94,WNW,296,16.0,18.0,53,0.00,,SKC,0.00,VWS V13.01,2013-02-05 05:14:00,
2013-02-05 00:19:00,27.9,13.0,29.94,West,274,13.0,20.0,53,0.00,,SKC,0.00,VWS V13.01,2013-02-05 05:19:00,
2013-02-05 00:20:00,27.9,13.0,29.94,WNW,285,15.0,20.0,53,0.00,,SKC,0.00,VWS V13.01,2013-02-05 05:20:00,
2013-02-05 00:24:00,27.9,13.4,29.94,WNW,282,10.0,20.0,54,0.00,,SKC,0.00,VWS V13.01,2013-02-05 05:24:00,
2013-02-05 00:29:00,27.9,13.4,29.94,WNW,298,11.0,20.0,54,0.00,,SKC,0.00,VWS V13.01,2013-02-05 05:29:00,
2013-02-05 00:30:00,28.0,13.9,29.94,WNW,288,13.0,20.0,55,0.00,,SKC,0.00,VWS V13.01,2013-02-05 05:30:00,
2013-02-05 00:34:00,28.0,13.9,29.94,WNW,282,11.0,18.0,55,0.00,,SKC,0.00,VWS V13.01,2013-02-05 05:34:00,
2013-02-05 00:39:00,28.0,14.3,29.94,WNW,294,4.0,18.0,56,0.00,,SKC,0.00,VWS V13.01,2013-02-05 05:39:00,
2013-02-05 00:40:00,28.0,14.4,29.94,WNW,291,5.0,18.0,56,0.00,,SKC,0.00,VWS V13.01,2013-02-05 05:40:00,
2013-02-05 00:44:00,28.0,14.8,29.94,WNW,284,4.0,11.0,57,0.00,,SKC,0.00,VWS V13.01,2013-02-05 05:44:00,
2013-02-05 00:49:00,28.0,14.8,29.94,West,277,10.0,16.0,57,0.00,,SKC,0.00,VWS V13.01,2013-02-05 05:49:00,
2013-02-05 00:50:00,28.0,14.8,29.94,West,277,10.0,16.0,57,0.00,,SKC,0.00,VWS V13.01,2013-02-05 05:50:00,
2013-02-05 00:54:00,28.1,14.8,29.94,West,273,6.0,14.0,57,0.00,,SKC,0.00,VWS V13.01,2013-02-05 05:54:00,
2013-02-05 00:59:00,28.1,15.2,29.94,West,277,9.0,16.0,58,0.00,,SKC,0.00,VWS V13.01,2013-02-05 05:59:00,
2013-02-05 01:00:00,28.1,15.2,29.94,WNW,284,10.0,16.0,58,0.00,,SKC,0.00,VWS V13.01,2013-02-05 06:00:00,
2013-02-05 01:05:00,28.1,15.2,29.94,WNW,292,6.0,13.0,58,0.00,,SKC,0.00,VWS V13.01,2013-02-05 06:05:00,
2013-02-05 01:10:00,28.1,15.6,29.94,West,277,11.0,14.0,59,0.00,,SKC,0.00,VWS V13.01,2013-02-05 06:10:00,
2013-02-05 01:15:00,28.1,15.6,29.94,WNW,282,7.0,13.0,59,0.00,,SKC,0.00,VWS V13.01,2013-02-05 06:15:00,
2013-02-05 01:20:00,28.1,15.6,29.94,WNW,288,6.0,13.0,59,0.00,,SKC,0.00,VWS V13.01,2013-02-05 06:20:00,
2013-02-05 01:25:00,28.1,16.0,29.94,WNW,300,9.0,16.0,60,0.00,,SKC,0.00,VWS V13.01,2013-02-05 06:25:00,
2013-02-05 01:30:00,28.1,15.6,29.94,WNW,299,7.0,16.0,59,0.00,,SKC,0.00,VWS V13.01,2013-02-05 06:30:00,
2013-02-05 01:35:00,28.1,16.0,29.94,WNW,286,6.0,10.0,60,0.00,,SKC,0.00,VWS V13.01,2013-02-05 06:35:00,
2013-02-05 01:40:00,28.1,16.0,29.94,WNW,295,5.0,12.0,60,0.00,,SKC,0.00,VWS V13.01,2013-02-05 06:40:00,
2013-02-05 01:45:00,28.1,16.0,29.94,WNW,295,6.0,7.0,60,0.00,,SKC,0.00,VWS V13.01,2013-02-05 06:45:00,
2013-02-05 01:50:00,28.1,16.4,29.94,WNW,288,6.0,10.0,61,0.00,,SKC,0.00,VWS V13.01,2013-02-05 06:50:00,
2013-02-05 01:55:00,28.1,16.4,29.94,WNW,288,6.0,6.0,61,0.00,,SKC,0.00,VWS V13.01,2013-02-05 06:55:00,
2013-02-05 02:00:00,28.1,16.4,29.93,WNW,288,5.0,11.0,61,0.00,,SKC,0.00,VWS V13.01,2013-02-05 07:00:00,
2013-02-05 02:05:00,28.1,16.8,29.94,WNW,288,7.0,7.0,62,0.00,,SKC,0.00,VWS V13.01,2013-02-05 07:05:00,
2013-02-05 02:10:00,28.1,16.8,29.94,WNW,290,5.0,10.0,62,0.00,,SKC,0.00,VWS V13.01,2013-02-05 07:10:00,
2013-02-05 02:16:00,28.1,16.8,29.94,WNW,290,3.0,5.0,62,0.00,,SKC,0.00,VWS V13.01,2013-02-05 07:16:00,
2013-02-05 02:20:00,28.1,17.1,29.94,WNW,290,6.0,9.0,63,0.00,,SKC,0.00,VWS V13.01,2013-02-05 07:20:00,
2013-02-05 02:21:00,28.1,17.1,29.94,WNW,290,6.0,6.0,63,0.00,,SKC,0.00,VWS V13.01,2013-02-05 07:21:00,
2013-02-05 02:26:00,28.1,17.1,29.94,WNW,290,3.0,7.0,63,0.00,,SKC,0.00,VWS V13.01,2013-02-05 07:26:00,
2013-02-05 02:30:00,28.1,17.1,29.94,WNW,290,4.0,7.0,63,0.00,,SKC,0.00,VWS V13.01,2013-02-05 07:30:00,
2013-02-05 02:31:00,28.1,17.1,29.94,WNW,290,4.0,4.0,63,0.00,,SKC,0.00,VWS V13.01,2013-02-05 07:31:00,
2013-02-05 02:36:00,28.1,17.1,29.94,WNW,290,4.0,6.0,63,0.00,,SKC,0.00,VWS V13.01,2013-02-05 07:36:00,
2013-02-05 02:40:00,28.1,17.5,29.94,WNW,290,2.0,6.0,64,0.00,,SKC,0.00,VWS V13.01,2013-02-05 07:40:00,
2013-02-05 02:41:00,28.1,17.5,29.94,WNW,290,4.0,4.0,64,0.00,,SKC,0.00,VWS V13.01,2013-02-05 07:41:00,
2013-02-05 02:46:00,28.1,17.5,29.93,WNW,290,2.0,6.0,64,0.00,,SKC,0.00,VWS V13.01,2013-02-05 07:46:00,
2013-02-05 02:50:00,28.1,17.5,29.93,WNW,285,7.0,7.0,64,0.00,,SKC,0.00,VWS V13.01,2013-02-05 07:50:00,
2013-02-05 02:51:00,28.1,17.5,29.93,West,271,9.0,11.0,64,0.00,,SKC,0.00,VWS V13.01,2013-02-05 07:51:00,
2013-02-05 02:56:00,28.3,16.6,29.94,West,272,10.0,14.0,61,0.00,,SKC,0.00,VWS V13.01,2013-02-05 07:56:00,
2013-02-05 03:00:00,28.5,16.8,29.94,West,271,6.0,14.0,61,0.00,,SKC,0.00,VWS V13.01,2013-02-05 08:00:00,
2013-02-05 03:01:00,28.5,16.8,29.93,West,272,6.0,9.0,61,0.00,,SKC,0.00,VWS V13.01,2013-02-05 08:01:00,
2013-02-05 03:06:00,28.5,17.1,29.93,West,273,2.0,9.0,62,0.00,,SKC,0.00,VWS V13.01,2013-02-05 08:06:00,
2013-02-05 03:10:00,28.5,17.1,29.94,West,276,7.0,10.0,62,0.00,,SKC,0.00,VWS V13.01,2013-02-05 08:10:00,
2013-02-05 03:11:00,28.5,17.1,29.94,West,276,12.0,14.0,62,0.00,,SKC,0.00,VWS V13.01,2013-02-05 08:11:00,
2013-02-05 03:16:00,28.6,17.6,29.93,WSW,244,4.0,14.0,63,0.00,,SKC,0.00,VWS V13.01,2013-02-05 08:16:00,
2013-02-05 03:20:00,28.7,17.7,29.93,WSW,251,6.0,14.0,63,0.00,,SKC,0.00,VWS V13.01,2013-02-05 08:20:00,
2013-02-05 03:21:00,28.7,17.7,29.93,WSW,252,5.0,7.0,63,0.00,,SKC,0.00,VWS V13.01,2013-02-05 08:21:00,
2013-02-05 03:26:00,28.7,17.7,29.94,West,264,7.0,11.0,63,0.00,,SKC,0.00,VWS V13.01,2013-02-05 08:26:00,
2013-02-05 03:30:00,28.7,17.7,29.93,West,280,6.0,12.0,63,0.00,,SKC,0.00,VWS V13.01,2013-02-05 08:30:00,
2013-02-05 03:31:00,28.7,17.7,29.93,West,279,7.0,8.0,63,0.00,,SKC,0.00,VWS V13.01,2013-02-05 08:31:00,
2013-02-05 03:36:00,28.8,18.2,29.93,WSW,258,3.0,9.0,64,0.00,,SKC,0.00,VWS V13.01,2013-02-05 08:36:00,
2013-02-05 03:40:00,28.8,18.2,29.93,WSW,250,9.0,10.0,64,0.00,,SKC,0.00,VWS V13.01,2013-02-05 08:40:00,
2013-02-05 03:41:00,28.8,18.2,29.93,WSW,250,5.0,9.0,64,0.00,,SKC,0.00,VWS V13.01,2013-02-05 08:41:00,
2013-02-05 03:46:00,28.8,18.2,29.93,WSW,250,6.0,9.0,64,0.00,,SKC,0.00,VWS V13.01,2013-02-05 08:46:00,
2013-02-05 03:50:00,28.8,18.5,29.93,WSW,254,6.0,11.0,65,0.00,,SKC,0.00,VWS V13.01,2013-02-05 08:50:00,
2013-02-05 03:52:00,28.8,18.5,29.93,WSW,254,3.0,7.0,65,0.00,,SKC,0.00,VWS V13.01,2013-02-05 08:52:00,
2013-02-05 03:57:00,28.8,19.2,29.93,WSW,254,6.0,11.0,67,0.00,,SKC,0.00,VWS V13.01,2013-02-05 08:57:00,
2013-02-05 04:02:00,28.8,19.2,29.93,WSW,254,4.0,5.0,67,0.00,,SKC,0.00,VWS V13.01,2013-02-05 09:02:00,
2013-02-05 04:07:00,28.8,19.6,29.93,WSW,254,6.0,7.0,68,0.00,,SKC,0.00,VWS V13.01,2013-02-05 09:07:00,
2013-02-05 04:10:00,28.8,19.6,29.93,WSW,254,5.0,7.0,68,0.00,,SKC,0.00,VWS V13.01,2013-02-05 09:10:00,
2013-02-05 04:12:00,28.8,19.6,29.93,WSW,254,5.0,7.0,68,0.00,,SKC,0.00,VWS V13.01,2013-02-05 09:12:00,
2013-02-05 04:17:00,28.7,19.5,29.93,WSW,254,3.0,7.0,68,0.00,,SKC,0.00,VWS V13.01,2013-02-05 09:17:00,
2013-02-05 04:20:00,28.7,19.8,29.93,WSW,254,4.0,10.0,69,0.00,,SKC,0.00,VWS V13.01,2013-02-05 09:20:00,
2013-02-05 04:22:00,28.7,20.2,29.93,WSW,254,5.0,5.0,70,0.00,,SKC,0.00,VWS V13.01,2013-02-05 09:22:00,
2013-02-05 04:27:00,28.7,20.2,29.93,WSW,254,4.0,7.0,70,0.00,,SKC,0.00,VWS V13.01,2013-02-05 09:27:00,
2013-02-05 04:30:00,28.7,20.2,29.93,WSW,254,3.0,7.0,70,0.00,,SKC,0.00,VWS V13.01,2013-02-05 09:30:00,
2013-02-05 04:32:00,28.7,20.2,29.93,WSW,254,4.0,5.0,70,0.00,,SKC,0.00,VWS V13.01,2013-02-05 09:32:00,
2013-02-05 04:37:00,28.7,20.5,29.93,WSW,254,4.0,5.0,71,0.00,,SKC,0.00,VWS V13.01,2013-02-05 09:37:00,
2013-02-05 04:40:00,28.7,20.5,29.93,WSW,254,3.0,5.0,71,0.00,,SKC,0.00,VWS V13.01,2013-02-05 09:40:00,
2013-02-05 04:42:00,28.7,20.5,29.93,WSW,254,4.0,5.0,71,0.00,,SKC,0.00,VWS V13.01,2013-02-05 09:42:00,
2013-02-05 04:47:00,28.7,20.5,29.93,WSW,254,4.0,7.0,71,0.00,,SKC,0.00,VWS V13.01,2013-02-05 09:47:00,
2013-02-05 04:50:00,28.6,20.7,29.94,WSW,254,2.0,7.0,72,0.00,,SKC,0.00,VWS V13.01,2013-02-05 09:50:00,
2013-02-05 04:52:00,28.6,20.7,29.93,WSW,254,3.0,4.0,72,0.00,,SKC,0.00,VWS V13.01,2013-02-05 09:52:00,
2013-02-05 04:57:00,28.5,20.6,29.93,WSW,254,1.0,4.0,72,0.00,,SKC,0.00,VWS V13.01,2013-02-05 09:57:00,
2013-02-05 05:00:00,28.5,20.6,29.93,WSW,254,1.0,4.0,72,0.00,,SKC,0.00,VWS V13.01,2013-02-05 10:00:00,
2013-02-05 05:02:00,28.5,20.6,29.93,WSW,254,1.0,2.0,72,0.00,,SKC,0.00,VWS V13.01,2013-02-05 10:02:00,
2013-02-05 05:07:00,28.4,20.5,29.93,WSW,254,0.0,2.0,72,0.00,,SKC,0.00,VWS V13.01,2013-02-05 10:07:00,
2013-02-05 05:10:00,28.4,20.9,29.92,WSW,254,0.0,2.0,73,0.00,,SKC,0.00,VWS V13.01,2013-02-05 10:10:00,
2013-02-05 05:12:00,28.4,20.9,29.92,WSW,254,0.0,0.0,73,0.00,,SKC,0.00,VWS V13.01,2013-02-05 10:12:00,
2013-02-05 05:17:00,28.4,20.9,29.92,WSW,254,0.0,1.0,73,0.00,,SKC,0.00,VWS V13.01,2013-02-05 10:17:00,
2013-02-05 05:20:00,28.3,21.1,29.92,WSW,254,0.0,1.0,74,0.00,,SKC,0.00,VWS V13.01,2013-02-05 10:20:00,
2013-02-05 05:22:00,28.3,21.1,29.92,WSW,254,0.0,0.0,74,0.00,,SKC,0.00,VWS V13.01,2013-02-05 10:22:00,
2013-02-05 05:27:00,28.3,21.1,29.93,WSW,254,0.0,0.0,74,0.00,,SKC,0.00,VWS V13.01,2013-02-05 10:27:00,
2013-02-05 05:30:00,28.2,21.3,29.93,WSW,254,1.0,3.0,75,0.00,,SKC,0.00,VWS V13.01,2013-02-05 10:30:00,
2013-02-05 05:32:00,28.1,21.2,29.93,WSW,254,0.0,2.0,75,0.00,,SKC,0.00,VWS V13.01,2013-02-05 10:32:00,
2013-02-05 05:37:00,28.1,21.2,29.93,WSW,254,1.0,2.0,75,0.00,,SKC,0.00,VWS V13.01,2013-02-05 10:37:00,
2013-02-05 05:40:00,28.0,21.4,29.93,WSW,254,2.0,2.0,76,0.00,,SKC,0.00,VWS V13.01,2013-02-05 10:40:00,
2013-02-05 05:42:00,28.0,21.4,29.93,WSW,254,2.0,3.0,76,0.00,,SKC,0.00,VWS V13.01,2013-02-05 10:42:00,
2013-02-05 05:48:00,27.9,21.6,29.93,WSW,258,5.0,7.0,77,0.00,,SKC,0.00,VWS V13.01,2013-02-05 10:48:00,
2013-02-05 05:50:00,27.8,21.2,29.93,West,259,3.0,7.0,76,0.00,,SKC,0.00,VWS V13.01,2013-02-05 10:50:00,
2013-02-05 05:53:00,27.8,21.2,29.93,West,259,4.0,5.0,76,0.00,,SKC,0.00,VWS V13.01,2013-02-05 10:53:00,
2013-02-05 05:58:00,27.7,21.1,29.93,West,259,5.0,6.0,76,0.00,,SKC,0.00,VWS V13.01,2013-02-05 10:58:00,
2013-02-05 06:00:00,27.6,21.0,29.93,West,259,4.0,7.0,76,0.00,,SKC,0.00,VWS V13.01,2013-02-05 11:00:00,
2013-02-05 06:03:00,27.6,21.0,29.93,West,263,6.0,7.0,76,0.00,,SKC,0.00,VWS V13.01,2013-02-05 11:03:00,
2013-02-05 06:08:00,27.5,20.6,29.93,West,273,5.0,7.0,75,0.00,,SKC,0.00,VWS V13.01,2013-02-05 11:08:00,
2013-02-05 06:10:00,27.5,20.6,29.92,WNW,288,5.0,9.0,75,0.00,,SKC,0.00,VWS V13.01,2013-02-05 11:10:00,
2013-02-05 06:13:00,27.5,20.6,29.92,WNW,292,6.0,7.0,75,0.00,,SKC,0.00,VWS V13.01,2013-02-05 11:13:00,
2013-02-05 06:18:00,27.4,20.2,29.92,WNW,302,7.0,7.0,74,0.00,,SKC,0.00,VWS V13.01,2013-02-05 11:18:00,
2013-02-05 06:20:00,27.4,20.5,29.93,NW,307,5.0,7.0,75,0.00,,SKC,0.00,VWS V13.01,2013-02-05 11:20:00,
2013-02-05 06:23:00,27.4,20.5,29.93,NW,316,6.0,8.0,75,0.00,,SKC,0.00,VWS V13.01,2013-02-05 11:23:00,
2013-02-05 06:28:00,27.3,20.4,29.94,NW,317,5.0,8.0,75,0.00,,SKC,0.00,VWS V13.01,2013-02-05 11:28:00,
2013-02-05 06:30:00,27.3,20.4,29.93,NW,318,4.0,8.0,75,0.00,,SKC,0.00,VWS V13.01,2013-02-05 11:30:00,
2013-02-05 06:33:00,27.2,20.6,29.94,NW,319,4.0,6.0,76,0.00,,SKC,0.00,VWS V13.01,2013-02-05 11:33:00,
2013-02-05 06:38:00,27.2,20.6,29.94,NW,319,5.0,7.0,76,0.00,,SKC,0.00,VWS V13.01,2013-02-05 11:38:00,
2013-02-05 06:40:00,27.2,20.6,29.94,NW,321,6.0,7.0,76,0.00,,SKC,0.00,VWS V13.01,2013-02-05 11:40:00,
2013-02-05 06:43:00,27.2,21.0,29.93,NW,323,5.0,7.0,77,0.00,,SKC,0.00,VWS V13.01,2013-02-05 11:43:00,
2013-02-05 06:48:00,27.1,20.9,29.93,NW,326,4.0,7.0,77,0.00,,SKC,0.00,VWS V13.01,2013-02-05 11:48:00,
2013-02-05 06:50:00,27.1,20.9,29.93,NNE,26,7.0,9.0,77,0.00,,SKC,0.00,VWS V13.01,2013-02-05 11:50:00,
2013-02-05 06:53:00,27.2,21.3,29.93,NNE,28,8.0,10.0,78,0.00,,SKC,0.00,VWS V13.01,2013-02-05 11:53:00,
2013-02-05 06:58:00,27.2,21.3,29.93,NNE,32,6.0,11.0,78,0.00,,SKC,0.00,VWS V13.01,2013-02-05 11:58:00,
2013-02-05 07:00:00,27.3,21.4,29.93,NNE,33,7.0,11.0,78,0.00,,SKC,0.00,VWS V13.01,2013-02-05 12:00:00,
2013-02-05 07:03:00,27.3,21.7,29.93,NNE,32,10.0,11.0,79,0.00,,SKC,0.00,VWS V13.01,2013-02-05 12:03:00,
2013-02-05 07:08:00,27.2,21.6,29.93,NNE,32,5.0,12.0,79,0.00,,SKC,0.00,VWS V13.01,2013-02-05 12:08:00,
2013-02-05 07:10:00,27.2,21.9,29.94,NE,35,10.0,12.0,80,0.00,,SKC,0.00,VWS V13.01,2013-02-05 12:10:00,
2013-02-05 07:13:00,27.2,21.9,29.94,NE,34,8.0,11.0,80,0.00,,SKC,0.00,VWS V13.01,2013-02-05 12:13:00,
2013-02-05 07:18:00,27.2,21.9,29.94,NNE,32,9.0,11.0,80,0.00,,SKC,0.00,VWS V13.01,2013-02-05 12:18:00,
2013-02-05 07:20:00,27.1,21.8,29.94,NNE,32,8.0,11.0,80,0.00,,SKC,0.00,VWS V13.01,2013-02-05 12:20:00,
2013-02-05 07:23:00,27.2,21.9,29.94,NNE,31,5.0,10.0,80,0.00,,SKC,0.00,VWS V13.01,2013-02-05 12:23:00,
2013-02-05 07:28:00,27.1,22.1,29.94,NNE,32,11.0,13.0,81,0.00,,SKC,0.00,VWS V13.01,2013-02-05 12:28:00,
2013-02-05 07:30:00,27.1,22.1,29.94,NNE,31,8.0,13.0,81,0.00,,SKC,0.00,VWS V13.01,2013-02-05 12:30:00,
2013-02-05 07:33:00,27.1,22.1,29.94,NE,37,10.0,11.0,81,0.00,,SKC,0.00,VWS V13.01,2013-02-05 12:33:00,
2013-02-05 07:38:00,27.1,22.1,29.94,NE,37,10.0,12.0,81,0.00,,SKC,0.00,VWS V13.01,2013-02-05 12:38:00,
2013-02-05 07:43:00,27.1,21.8,29.94,NE,37,11.0,12.0,80,0.00,,SKC,0.00,VWS V13.01,2013-02-05 12:43:00,
2013-02-05 07:48:00,27.1,21.8,29.94,NE,46,10.0,14.0,80,0.00,,SKC,0.00,VWS V13.01,2013-02-05 12:48:00,
2013-02-05 07:50:00,27.2,21.9,29.94,NE,38,9.0,14.0,80,0.00,,SKC,0.00,VWS V13.01,2013-02-05 12:50:00,
2013-02-05 07:53:00,27.2,21.9,29.94,NE,34,10.0,13.0,80,0.00,,SKC,0.00,VWS V13.01,2013-02-05 12:53:00,
2013-02-05 07:58:00,27.2,21.9,29.94,NE,38,8.0,13.0,80,0.00,,SKC,0.00,VWS V13.01,2013-02-05 12:58:00,
2013-02-05 08:00:00,27.3,22.0,29.95,NE,53,11.0,13.0,80,0.00,,SKC,0.00,VWS V13.01,2013-02-05 13:00:00,
2013-02-05 08:03:00,27.3,22.0,29.95,NE,43,9.0,12.0,80,0.00,,SKC,0.00,VWS V13.01,2013-02-05 13:03:00,
2013-02-05 08:08:00,27.4,22.0,29.95,NE,41,9.0,12.0,80,0.00,,SKC,0.00,VWS V13.01,2013-02-05 13:08:00,
2013-02-05 08:13:00,27.5,22.1,29.95,NE,36,10.0,10.0,80,0.00,,SKC,0.00,VWS V13.01,2013-02-05 13:13:00,
2013-02-05 08:18:00,27.5,22.1,29.95,NE,46,7.0,11.0,80,0.00,,SKC,0.00,VWS V13.01,2013-02-05 13:18:00,
2013-02-05 08:20:00,27.5,22.1,29.95,NE,45,8.0,13.0,80,0.00,,SKC,0.00,VWS V13.01,2013-02-05 13:20:00,
2013-02-05 08:30:00,27.6,22.0,29.95,NE,45,8.0,12.0,79,0.00,,SKC,0.00,VWS V13.01,2013-02-05 13:30:00,
2013-02-05 08:40:00,27.7,22.4,29.95,NE,45,9.0,14.0,80,0.00,,SKC,0.00,VWS V13.01,2013-02-05 13:40:00,
2013-02-05 08:50:00,27.7,22.4,29.95,NE,45,9.0,14.0,80,0.00,,SKC,0.00,VWS V13.01,2013-02-05 13:50:00,
2013-02-05 09:00:00,27.7,22.4,29.95,NE,45,10.0,14.0,80,0.00,,SKC,0.00,VWS V13.01,2013-02-05 14:00:00,
2013-02-05 09:10:00,27.7,22.6,29.96,NE,45,7.0,15.0,81,0.00,,SKC,0.00,VWS V13.01,2013-02-05 14:10:00,
2013-02-05 09:20:00,27.8,22.4,29.96,NE,45,9.0,15.0,80,0.00,,SKC,0.00,VWS V13.01,2013-02-05 14:20:00,
2013-02-05 09:30:00,27.8,22.4,29.96,NE,45,10.0,16.0,80,0.00,,SKC,0.00,VWS V13.01,2013-02-05 14:30:00,
2013-02-05 09:40:00,27.9,22.8,29.97,NE,45,9.0,13.0,81,0.00,,SKC,0.00,VWS V13.01,2013-02-05 14:40:00,
2013-02-05 09:50:00,28.1,23.3,29.97,NE,45,10.0,15.0,82,0.00,,SKC,0.00,VWS V13.01,2013-02-05 14:50:00,
2013-02-05 10:00:00,28.2,24.0,29.97,ENE,68,11.0,16.0,84,0.00,,SKC,0.00,VWS V13.01,2013-02-05 15:00:00,
2013-02-05 10:10:00,28.2,24.3,29.96,ENE,68,11.0,15.0,85,0.00,,SKC,0.00,VWS V13.01,2013-02-05 15:10:00,
2013-02-05 10:20:00,27.9,24.3,29.96,ENE,68,12.0,18.0,86,0.00,,SKC,0.00,VWS V13.01,2013-02-05 15:20:00,
2013-02-05 10:30:00,27.8,24.2,29.97,ENE,68,12.0,18.0,86,0.01,,SKC,0.01,VWS V13.01,2013-02-05 15:30:00,
2013-02-05 10:40:00,27.7,24.1,29.96,ENE,68,13.0,18.0,86,0.01,,SKC,0.01,VWS V13.01,2013-02-05 15:40:00,
2013-02-05 10:50:00,27.7,24.3,29.96,ENE,68,13.0,19.0,87,0.01,,SKC,0.01,VWS V13.01,2013-02-05 15:50:00,
2013-02-05 11:00:00,27.8,24.7,29.97,ENE,68,12.0,17.0,88,0.01,,SKC,0.01,VWS V13.01,2013-02-05 16:00:00,
2013-02-05 11:20:00,27.8,24.7,29.96,ENE,68,12.0,18.0,88,0.01,,SKC,0.01,VWS V13.01,2013-02-05 16:20:00,
2013-02-05 11:30:00,27.6,24.5,29.96,ENE,68,13.0,18.0,88,0.01,,SKC,0.01,VWS V13.01,2013-02-05 16:30:00,
2013-02-05 11:40:00,27.6,24.5,29.95,ENE,68,13.0,17.0,88,0.00,,SKC,0.01,VWS V13.01,2013-02-05 16:40:00,
2013-02-05 11:50:00,27.5,24.7,29.95,ENE,68,13.0,19.0,89,0.00,,SKC,0.01,VWS V13.01,2013-02-05 16:50:00,
2013-02-05 12:00:00,27.2,24.4,29.94,ENE,68,14.0,20.0,89,0.00,,SKC,0.01,VWS V13.01,2013-02-05 17:00:00,
2013-02-05 12:10:00,27.1,24.3,29.94,ENE,68,13.0,20.0,89,0.00,,SKC,0.01,VWS V13.01,2013-02-05 17:10:00,
2013-02-05 12:20:00,27.2,24.7,29.95,ENE,68,13.0,19.0,90,0.00,,SKC,0.01,VWS V13.01,2013-02-05 17:20:00,
2013-02-05 12:30:00,27.1,24.6,29.94,ENE,68,13.0,19.0,90,0.00,,SKC,0.01,VWS V13.01,2013-02-05 17:30:00,
2013-02-05 12:40:00,27.2,24.7,29.93,ENE,68,12.0,18.0,90,0.00,,SKC,0.01,VWS V13.01,2013-02-05 17:40:00,
2013-02-05 13:00:00,27.4,24.6,29.93,ENE,68,13.0,20.0,89,0.00,,SKC,0.01,VWS V13.01,2013-02-05 18:00:00,
2013-02-05 13:10:00,27.7,24.9,29.92,East,90,12.0,17.0,89,0.00,,SKC,0.01,VWS V13.01,2013-02-05 18:10:00,
2013-02-05 13:20:00,27.8,25.0,29.91,ENE,68,14.0,22.0,89,0.00,,SKC,0.01,VWS V13.01,2013-02-05 18:20:00,
2013-02-05 13:40:00,27.6,24.8,29.92,ENE,68,12.0,18.0,89,0.01,,SKC,0.02,VWS V13.01,2013-02-05 18:40:00,
2013-02-05 13:50:00,27.6,24.8,29.92,ENE,68,13.0,19.0,89,0.01,,SKC,0.02,VWS V13.01,2013-02-05 18:50:00,
2013-02-05 14:00:00,27.8,25.0,29.92,ENE,68,13.0,18.0,89,0.01,,SKC,0.02,VWS V13.01,2013-02-05 19:00:00,
2013-02-05 14:10:00,27.9,25.1,29.92,ENE,68,12.0,18.0,89,0.01,,SKC,0.02,VWS V13.01,2013-02-05 19:10:00,
2013-02-05 14:20:00,27.9,25.1,29.92,ENE,68,13.0,18.0,89,0.01,,SKC,0.02,VWS V13.01,2013-02-05 19:20:00,
2013-02-05 14:30:00,28.0,25.2,29.92,ENE,68,11.0,18.0,89,0.01,,SKC,0.02,VWS V13.01,2013-02-05 19:30:00,
2013-02-05 14:40:00,28.1,25.3,29.92,ENE,68,12.0,18.0,89,0.01,,SKC,0.02,VWS V13.01,2013-02-05 19:40:00,
2013-02-05 14:50:00,28.1,25.5,29.91,ENE,68,13.0,21.0,90,0.00,,SKC,0.02,VWS V13.01,2013-02-05 19:50:00,
2013-02-05 15:00:00,28.2,25.6,29.91,ENE,68,13.0,18.0,90,0.01,,SKC,0.03,VWS V13.01,2013-02-05 20:00:00,
2013-02-05 15:10:00,28.3,25.8,29.90,ENE,68,13.0,19.0,90,0.01,,SKC,0.03,VWS V13.01,2013-02-05 20:10:00,
2013-02-05 15:20:00,28.3,25.8,29.89,ENE,68,14.0,20.0,90,0.01,,SKC,0.03,VWS V13.01,2013-02-05 20:20:00,
2013-02-05 15:30:00,28.4,25.9,29.89,ENE,68,13.0,19.0,90,0.01,,SKC,0.03,VWS V13.01,2013-02-05 20:30:00,
2013-02-05 15:40:00,28.5,26.2,29.89,ENE,68,14.0,20.0,91,0.01,,SKC,0.03,VWS V13.01,2013-02-05 20:40:00,
2013-02-05 15:50:00,28.5,26.0,29.89,East,90,12.0,18.0,90,0.01,,SKC,0.03,VWS V13.01,2013-02-05 20:50:00,
2013-02-05 16:00:00,28.5,25.7,29.89,East,90,11.0,17.0,89,0.01,,SKC,0.03,VWS V13.01,2013-02-05 21:00:00,
2013-02-05 16:10:00,28.6,25.5,29.88,East,90,12.0,19.0,88,0.00,,SKC,0.03,VWS V13.01,2013-02-05 21:10:00,
2013-02-05 16:20:00,28.7,25.6,29.89,East,90,10.0,15.0,88,0.00,,SKC,0.03,VWS V13.01,2013-02-05 21:20:00,
2013-02-05 16:40:00,28.7,25.9,29.89,East,90,11.0,17.0,89,0.00,,SKC,0.03,VWS V13.01,2013-02-05 21:40:00,
2013-02-05 16:50:00,28.7,26.1,29.89,ENE,68,11.0,16.0,90,0.00,,SKC,0.03,VWS V13.01,2013-02-05 21:50:00,
2013-02-05 17:00:00,28.7,26.1,29.89,East,90,10.0,17.0,90,0.00,,SKC,0.03,VWS V13.01,2013-02-05 22:00:00,
2013-02-05 17:10:00,28.9,26.6,29.89,ENE,68,10.0,16.0,91,0.00,,SKC,0.03,VWS V13.01,2013-02-05 22:10:00,
2013-02-05 17:20:00,29.0,26.7,29.89,ENE,68,10.0,16.0,91,0.00,,SKC,0.03,VWS V13.01,2013-02-05 22:20:00,
2013-02-05 17:30:00,29.0,27.0,29.90,ENE,68,10.0,15.0,92,0.01,,SKC,0.04,VWS V13.01,2013-02-05 22:30:00,
2013-02-05 17:40:00,29.1,27.1,29.89,ENE,68,11.0,15.0,92,0.01,,SKC,0.04,VWS V13.01,2013-02-05 22:40:00,
2013-02-05 17:50:00,29.2,27.2,29.89,ENE,68,12.0,16.0,92,0.01,,SKC,0.04,VWS V13.01,2013-02-05 22:50:00,
2013-02-05 18:10:00,29.2,27.4,29.89,ENE,68,13.0,19.0,93,0.01,,SKC,0.04,VWS V13.01,2013-02-05 23:10:00,
2013-02-05 18:20:00,29.2,27.4,29.89,ENE,68,13.0,18.0,93,0.01,,SKC,0.04,VWS V13.01,2013-02-05 23:20:00,
2013-02-05 18:30:00,29.2,27.4,29.90,ENE,68,13.0,19.0,93,0.01,,SKC,0.04,VWS V13.01,2013-02-05 23:30:00,
2013-02-05 18:40:00,29.2,27.4,29.90,ENE,68,12.0,18.0,93,0.01,,SKC,0.05,VWS V13.01,2013-02-05 23:40:00,
2013-02-05 19:00:00,29.4,27.4,29.89,ENE,68,12.0,17.0,92,0.01,,SKC,0.05,VWS V13.01,2013-02-06 00:00:00,
2013-02-05 19:10:00,29.6,27.8,29.89,East,90,10.0,16.0,93,0.01,,SKC,0.05,VWS V13.01,2013-02-06 00:10:00,
2013-02-05 19:20:00,29.8,27.8,29.89,East,90,11.0,18.0,92,0.01,,SKC,0.05,VWS V13.01,2013-02-06 00:20:00,
2013-02-05 19:30:00,30.1,28.3,29.89,ENE,68,13.0,18.0,93,0.01,,SKC,0.05,VWS V13.01,2013-02-06 00:30:00,
2013-02-05 19:40:00,30.3,28.5,29.89,ENE,68,12.0,17.0,93,0.01,,SKC,0.05,VWS V13.01,2013-02-06 00:40:00,
2013-02-05 19:50:00,30.5,28.7,29.89,ENE,68,12.0,17.0,93,0.00,,SKC,0.05,VWS V13.01,2013-02-06 00:50:00,
2013-02-05 20:00:00,30.6,28.8,29.89,ENE,68,10.0,17.0,93,0.00,,SKC,0.05,VWS V13.01,2013-02-06 01:00:00,
2013-02-05 20:10:00,30.8,29.0,29.89,ENE,68,10.0,16.0,93,0.00,,SKC,0.05,VWS V13.01,2013-02-06 01:10:00,
2013-02-05 20:20:00,30.8,29.0,29.89,ENE,68,11.0,16.0,93,0.00,,SKC,0.05,VWS V13.01,2013-02-06 01:20:00,
2013-02-05 20:30:00,30.8,29.0,29.89,ENE,68,12.0,16.0,93,0.00,,SKC,0.05,VWS V13.01,2013-02-06 01:30:00,
2013-02-05 20:40:00,30.9,29.1,29.89,ENE,68,11.0,18.0,93,0.00,,SKC,0.05,VWS V13.01,2013-02-06 01:40:00,
2013-02-05 20:50:00,30.8,29.0,29.89,ENE,68,10.0,15.0,93,0.00,,SKC,0.05,VWS V13.01,2013-02-06 01:50:00,
2013-02-05 21:00:00,30.8,29.0,29.88,ENE,68,10.0,15.0,93,0.00,,SKC,0.05,VWS V13.01,2013-02-06 02:00:00,
2013-02-05 21:10:00,30.9,29.1,29.88,ENE,68,12.0,17.0,93,0.00,,SKC,0.05,VWS V13.01,2013-02-06 02:10:00,
2013-02-05 21:20:00,30.9,29.1,29.87,ENE,68,12.0,19.0,93,0.00,,SKC,0.05,VWS V13.01,2013-02-06 02:20:00,
2013-02-05 21:30:00,31.1,29.3,29.88,ENE,68,11.0,16.0,93,0.00,,SKC,0.05,VWS V13.01,2013-02-06 02:30:00,
2013-02-05 21:40:00,31.2,29.4,29.88,ENE,68,11.0,18.0,93,0.00,,SKC,0.05,VWS V13.01,2013-02-06 02:40:00,
2013-02-05 21:50:00,31.2,29.4,29.88,ENE,68,12.0,18.0,93,0.00,,SKC,0.05,VWS V13.01,2013-02-06 02:50:00,
2013-02-05 22:00:00,31.4,29.6,29.88,ENE,68,12.0,18.0,93,0.00,,SKC,0.05,VWS V13.01,2013-02-06 03:00:00,
2013-02-05 22:10:00,31.5,29.7,29.88,NE,45,12.0,16.0,93,0.00,,SKC,0.05,VWS V13.01,2013-02-06 03:10:00,
2013-02-05 22:20:00,31.6,29.8,29.88,NE,45,12.0,17.0,93,0.00,,SKC,0.05,VWS V13.01,2013-02-06 03:20:00,
2013-02-05 22:30:00,31.3,29.5,29.88,NE,45,12.0,16.0,93,0.00,,SKC,0.05,VWS V13.01,2013-02-06 03:30:00,
2013-02-05 22:40:00,30.9,29.1,29.87,NE,45,13.0,19.0,93,0.00,,SKC,0.05,VWS V13.01,2013-02-06 03:40:00,
2013-02-05 22:50:00,30.8,29.3,29.87,NE,45,13.0,19.0,94,0.00,,SKC,0.05,VWS V13.01,2013-02-06 03:50:00,
2013-02-05 23:00:00,30.8,29.3,29.87,NE,45,12.0,17.0,94,0.00,,SKC,0.05,VWS V13.01,2013-02-06 04:00:00,
2013-02-05 23:10:00,30.9,29.4,29.87,NE,45,12.0,18.0,94,0.00,,SKC,0.05,VWS V13.01,2013-02-06 04:10:00,
2013-02-05 23:20:00,30.9,29.4,29.88,NE,45,13.0,18.0,94,0.00,,SKC,0.05,VWS V13.01,2013-02-06 04:20:00,
2013-02-05 23:30:00,30.9,29.4,29.87,NE,45,12.0,17.0,94,0.00,,SKC,0.05,VWS V13.01,2013-02-06 04:30:00,
2013-02-05 23:40:00,30.8,29.3,29.87,NE,45,12.0,17.0,94,0.00,,SKC,0.05,VWS V13.01,2013-02-06 04:40:00,
2013-02-05 23:50:00,30.8,29.3,29.87,NE,45,11.0,17.0,94,0.00,,SKC,0.05,VWS V13.01,2013-02-06 04:50:00,